カタログに戻る

STARLINK-31325

運用中通信VLEO
NORAD 59165·PAYLOAD·🇺🇸 United States

打ち上げ Mar 4, 2024 から Cape Canaveral Space Force Station

Loading…

次のパス (今後24時間)

TLE

最新Source: CelesTrak SupGP

元期: Sep 14, 2026, 22:28 UTC

1 59165C 24044P   26257.93659722 -.00021945  00000+0 -79507-3 0  2575
2 59165  42.9995 118.1438 0001437 272.7327 308.7937 15.27579615    13

AllMySatでSTARLINK-31325をリアルタイム追跡

Download on the App Store